Location: Unspecified
(0.0000°N, 0.0000°E)
Time: 05:16:27
(UTC+00:00)

N. Korean satellite - Pass Details

Date: 12 May 2021
Orbit: 450 x 501 km, 97.2° (Epoch: 16 May)

Event Time Altitude Azimuth Distance (km) Brightness Sun altitude
Rises 05:15:14 0° 359° (N) 2,439 10.4 -9.8°
Reaches altitude 10° 05:17:19 10° 352° (N) 1,573 9.3 -9.3°
Maximum altitude 05:20:30 40° 281° (W) 676 6.9 -8.5°
Drops below altitude 10° 05:23:44 10° 210° (SSW) 1,594 8.7 -7.8°
Sets 05:25:51 0° 202° (SSW) 2,476 9.8 -7.2°
